Time,TemperatureF,DewpointF,PressureIn,WindDirection,WindDirectionDegrees,WindSpeedMPH,WindSpeedGustMPH,Humidity,HourlyPrecipIn,Conditions,Clouds,dailyrainin,SoftwareType,DateUTC
2013-02-05 00:12:00,-999.0,-99.9,29.90,West,275,3.0,4.0,-999,-99.99,,,-99.99,,2013-02-05 05:12:00,
2013-02-05 00:32:00,-999.0,-99.9,29.90,West,275,2.0,3.0,-999,-99.99,,,-99.99,,2013-02-05 05:32:00,
2013-02-05 00:42:00,-999.0,-99.9,29.90,West,269,2.0,2.0,-999,-99.99,,,-99.99,,2013-02-05 05:42:00,
2013-02-05 00:52:00,-999.0,-99.9,29.90,West,268,1.0,2.0,-999,-99.99,,,-99.99,,2013-02-05 05:52:00,
2013-02-05 01:11:00,-999.0,-99.9,29.89,WSW,237,3.0,4.0,-999,-99.99,,,-99.99,,2013-02-05 06:11:00,
2013-02-05 01:22:00,-999.0,-99.9,29.89,WSW,240,2.0,3.0,-999,-99.99,,,-99.99,,2013-02-05 06:22:00,
2013-02-05 01:32:00,-999.0,-99.9,29.90,SSW,192,3.0,4.0,-999,-99.99,,,-99.99,,2013-02-05 06:32:00,
2013-02-05 01:42:00,-999.0,-99.9,29.91,SSW,200,5.0,6.0,-999,-99.99,,,-99.99,,2013-02-05 06:42:00,
2013-02-05 01:52:00,-999.0,-99.9,29.91,SSW,198,5.0,5.0,-999,-99.99,,,-99.99,,2013-02-05 06:52:00,
2013-02-05 02:01:00,-999.0,-99.9,29.92,South,186,3.0,4.0,-999,-99.99,,,-99.99,,2013-02-05 07:01:00,
2013-02-05 02:12:00,-999.0,-99.9,29.91,SW,236,3.0,3.0,-999,-99.99,,,-99.99,,2013-02-05 07:12:00,
2013-02-05 02:42:00,-999.0,-99.9,29.90,WSW,255,6.0,7.0,-999,-99.99,,,-99.99,,2013-02-05 07:42:00,
2013-02-05 03:11:00,-999.0,-99.9,29.90,WSW,254,5.0,7.0,-999,-99.99,,,-99.99,,2013-02-05 08:11:00,
2013-02-05 03:22:00,-999.0,-99.9,29.90,WSW,241,6.0,7.0,-999,-99.99,,,-99.99,,2013-02-05 08:22:00,
2013-02-05 03:52:00,-999.0,-99.9,29.90,WSW,246,7.0,8.0,-999,-99.99,,,-99.99,,2013-02-05 08:52:00,
2013-02-05 04:02:00,-999.0,-99.9,29.91,WSW,250,6.0,7.0,-999,-99.99,,,-99.99,,2013-02-05 09:02:00,
2013-02-05 04:12:00,23.0,-99.9,29.91,North,-999,-999.0,-999.0,-999,-99.99,,,-99.99,,2013-02-05 09:12:00,
2013-02-05 04:22:00,-999.0,-99.9,29.91,WSW,255,5.0,6.0,-999,-99.99,,,-99.99,,2013-02-05 09:22:00,
2013-02-05 04:32:00,-999.0,-99.9,29.91,WSW,257,5.0,6.0,-999,-99.99,,,-99.99,,2013-02-05 09:32:00,
2013-02-05 04:42:00,-999.0,-99.9,29.92,WSW,248,6.0,7.0,-999,-99.99,,,-99.99,,2013-02-05 09:42:00,
2013-02-05 04:52:00,-999.0,-99.9,29.93,WSW,243,5.0,6.0,-999,-99.99,,,-99.99,,2013-02-05 09:52:00,
2013-02-05 05:02:00,-999.0,-99.9,29.92,WSW,248,6.0,7.0,-999,-99.99,,,-99.99,,2013-02-05 10:02:00,
2013-02-05 05:11:00,-999.0,-99.9,29.92,WSW,255,5.0,6.0,-999,-99.99,,,-99.99,,2013-02-05 10:11:00,
2013-02-05 05:32:00,-999.0,-99.9,29.92,WSW,255,5.0,6.0,-999,-99.99,,,-99.99,,2013-02-05 10:32:00,
2013-02-05 05:42:00,-999.0,-99.9,29.92,WSW,253,6.0,7.0,-999,-99.99,,,-99.99,,2013-02-05 10:42:00,
2013-02-05 05:52:00,-999.0,-99.9,29.92,WSW,250,5.0,6.0,-999,-99.99,,,-99.99,,2013-02-05 10:52:00,
2013-02-05 06:11:00,22.0,-99.9,29.91,North,-999,-999.0,-999.0,-999,-99.99,,,-99.99,,2013-02-05 11:11:00,
2013-02-05 06:32:00,-999.0,-99.9,29.91,West,261,5.0,6.0,-999,-99.99,,,-99.99,,2013-02-05 11:32:00,
2013-02-05 06:53:00,-999.0,-99.9,29.91,WSW,252,6.0,7.0,-999,-99.99,,,-99.99,,2013-02-05 11:53:00,
2013-02-05 07:02:00,-999.0,-99.9,29.91,WSW,255,8.0,9.0,-999,-99.99,,,-99.99,,2013-02-05 12:02:00,
2013-02-05 07:12:00,-999.0,-99.9,29.91,West,265,7.0,9.0,-999,-99.99,,,-99.99,,2013-02-05 12:12:00,
2013-02-05 07:22:00,-999.0,-99.9,29.90,West,270,7.0,8.0,-999,-99.99,,,-99.99,,2013-02-05 12:22:00,
2013-02-05 07:32:00,-999.0,-99.9,29.91,West,265,5.0,6.0,-999,-99.99,,,-99.99,,2013-02-05 12:32:00,
2013-02-05 07:42:00,22.0,-99.9,29.91,North,-999,-999.0,-999.0,-999,-99.99,,,-99.99,,2013-02-05 12:42:00,
2013-02-05 08:32:00,-999.0,-99.9,29.92,West,264,4.0,4.0,-999,-99.99,,,-99.99,,2013-02-05 13:32:00,
2013-02-05 08:42:00,22.0,-99.9,29.93,North,-999,-999.0,-999.0,-999,-99.99,,,-99.99,,2013-02-05 13:42:00,
2013-02-05 09:12:00,-999.0,-99.9,29.94,WSW,258,3.0,3.0,-999,-99.99,,,-99.99,,2013-02-05 14:12:00,
2013-02-05 09:22:00,-999.0,-99.9,29.94,WSW,253,2.0,3.0,-999,-99.99,,,-99.99,,2013-02-05 14:22:00,
2013-02-05 09:42:00,-999.0,-99.9,29.94,NW,307,4.0,6.0,-999,-99.99,,,-99.99,,2013-02-05 14:42:00,
2013-02-05 09:52:00,-999.0,-99.9,29.94,NW,304,2.0,4.0,-999,-99.99,,,-99.99,,2013-02-05 14:52:00,
2013-02-05 10:02:00,-999.0,-99.9,29.93,NNW,341,3.0,5.0,-999,-99.99,,,-99.99,,2013-02-05 15:02:00,
2013-02-05 10:11:00,-999.0,-99.9,29.93,NW,320,2.0,6.0,-999,-99.99,,,-99.99,,2013-02-05 15:11:00,
2013-02-05 10:22:00,-999.0,-99.9,29.93,North,352,3.0,6.0,-999,-99.99,,,-99.99,,2013-02-05 15:22:00,
2013-02-05 10:32:00,25.0,-99.9,29.93,North,-999,-999.0,-999.0,-999,-99.99,,,-99.99,,2013-02-05 15:32:00,
2013-02-05 10:42:00,-999.0,-99.9,29.94,North,354,1.0,5.0,-999,-99.99,,,-99.99,,2013-02-05 15:42:00,
2013-02-05 11:02:00,-999.0,-99.9,29.93,West,278,2.0,5.0,-999,-99.99,,,-99.99,,2013-02-05 16:02:00,
2013-02-05 11:12:00,-999.0,-99.9,29.93,WNW,285,3.0,6.0,-999,-99.99,,,-99.99,,2013-02-05 16:12:00,
2013-02-05 11:22:00,-999.0,-99.9,29.93,NNW,341,2.0,4.0,-999,-99.99,,,-99.99,,2013-02-05 16:22:00,
2013-02-05 11:33:00,-999.0,-99.9,29.94,NW,325,4.0,5.0,-999,-99.99,,,-99.99,,2013-02-05 16:33:00,
2013-02-05 11:42:00,27.0,-99.9,29.94,North,-999,-999.0,-999.0,-999,-99.99,,,-99.99,,2013-02-05 16:42:00,
2013-02-05 12:01:00,-999.0,-99.9,29.93,West,280,3.0,8.0,-999,-99.99,,,-99.99,,2013-02-05 17:01:00,
2013-02-05 12:22:00,-999.0,-99.9,29.91,NW,321,3.0,6.0,-999,-99.99,,,-99.99,,2013-02-05 17:22:00,
2013-02-05 12:33:00,-999.0,-99.9,29.91,NNW,328,3.0,5.0,-999,-99.99,,,-99.99,,2013-02-05 17:33:00,
2013-02-05 12:42:00,26.0,-99.9,29.90,North,-999,-999.0,-999.0,-999,-99.99,,,-99.99,,2013-02-05 17:42:00,
2013-02-05 13:02:00,26.0,-99.9,29.89,WNW,297,3.0,4.0,-999,-99.99,,,-99.99,,2013-02-05 18:02:00,
2013-02-05 13:12:00,26.0,-99.9,29.88,NW,311,4.0,5.0,-999,-99.99,,,-99.99,,2013-02-05 18:12:00,
2013-02-05 13:22:00,-999.0,-99.9,-100.00,NW,308,4.0,5.0,-999,-99.99,,,-99.99,,2013-02-05 18:22:00,
2013-02-05 13:52:00,24.0,-99.9,29.87,WNW,282,7.0,9.0,-999,-99.99,,,-99.99,,2013-02-05 18:52:00,
2013-02-05 14:11:00,24.0,-99.9,-100.00,West,279,8.0,10.0,-999,-99.99,,,-99.99,,2013-02-05 19:11:00,
2013-02-05 14:22:00,-999.0,-99.9,-100.00,West,278,9.0,10.0,-999,-99.99,,,-99.99,,2013-02-05 19:22:00,
2013-02-05 14:32:00,25.0,-99.9,-100.00,WNW,283,8.0,11.0,-999,-99.99,,,-99.99,,2013-02-05 19:32:00,
2013-02-05 14:42:00,24.0,-99.9,29.87,North,-999,-999.0,-999.0,-999,-99.99,,,-99.99,,2013-02-05 19:42:00,
2013-02-05 14:52:00,24.0,-99.9,29.87,WNW,286,8.0,10.0,-999,-99.99,,,-99.99,,2013-02-05 19:52:00,
2013-02-05 15:11:00,24.0,-99.9,-100.00,WNW,282,7.0,9.0,-999,-99.99,,,-99.99,,2013-02-05 20:11:00,
2013-02-05 15:22:00,24.0,-99.9,29.88,West,268,6.0,8.0,-999,-99.99,,,-99.99,,2013-02-05 20:22:00,
2013-02-05 15:42:00,24.0,-99.9,29.88,West,261,5.0,6.0,-999,-99.99,,,-99.99,,2013-02-05 20:42:00,
2013-02-05 15:52:00,-999.0,-99.9,-100.00,WSW,253,6.0,6.0,-999,-99.99,,,-99.99,,2013-02-05 20:52:00,
2013-02-05 16:11:00,24.0,-99.9,29.88,North,-999,-999.0,-999.0,-999,-99.99,,,-99.99,,2013-02-05 21:11:00,
2013-02-05 16:22:00,24.0,-99.9,29.87,West,261,4.0,6.0,-999,-99.99,,,-99.99,,2013-02-05 21:22:00,
2013-02-05 16:32:00,24.0,-99.9,29.87,WSW,252,3.0,4.0,-999,-99.99,,,-99.99,,2013-02-05 21:32:00,
2013-02-05 16:42:00,23.0,-99.9,-100.00,West,266,3.0,4.0,-999,-99.99,,,-99.99,,2013-02-05 21:42:00,
2013-02-05 17:02:00,22.0,-99.9,29.88,WNW,286,4.0,4.0,-999,-99.99,,,-99.99,,2013-02-05 22:02:00,
2013-02-05 17:12:00,23.0,-99.9,-100.00,WNW,302,4.0,5.0,-999,-99.99,,,-99.99,,2013-02-05 22:12:00,
2013-02-05 17:22:00,-999.0,-99.9,-100.00,NW,308,4.0,5.0,-999,-99.99,,,-99.99,,2013-02-05 22:22:00,
2013-02-05 17:42:00,-999.0,-99.9,-100.00,WNW,284,0.0,1.0,-999,-99.99,,,-99.99,,2013-02-05 22:42:00,
2013-02-05 17:52:00,-999.0,-99.9,-100.00,WNW,284,1.0,1.0,-999,-99.99,,,-99.99,,2013-02-05 22:52:00,
2013-02-05 18:02:00,24.0,-99.9,29.88,ESE,123,1.0,2.0,-999,-99.99,,,-99.99,,2013-02-05 23:02:00,
2013-02-05 18:12:00,24.0,-99.9,-100.00,SE,134,2.0,2.0,-999,-99.99,,,-99.99,,2013-02-05 23:12:00,
2013-02-05 18:22:00,-999.0,-99.9,-100.00,ESE,112,1.0,2.0,-999,-99.99,,,-99.99,,2013-02-05 23:22:00,
2013-02-05 18:42:00,25.0,-99.9,-100.00,ESE,121,-999.0,1.0,-999,-99.99,,,-99.99,,2013-02-05 23:42:00,
2013-02-05 19:22:00,26.0,-99.9,29.89,North,-999,-999.0,-999.0,-999,-99.99,,,-99.99,,2013-02-06 00:22:00,
2013-02-05 19:42:00,26.0,-99.9,29.91,NNW,337,2.0,3.0,-999,-99.99,,,-99.99,,2013-02-06 00:42:00,
2013-02-05 19:52:00,-999.0,-99.9,-100.00,NW,314,4.0,4.0,-999,-99.99,,,-99.99,,2013-02-06 00:52:00,
2013-02-05 20:02:00,25.0,-99.9,29.92,NW,313,0.0,3.0,-999,-99.99,,,-99.99,,2013-02-06 01:02:00,
2013-02-05 20:12:00,25.0,-99.9,29.92,ENE,63,-999.0,2.0,-999,-99.99,,,-99.99,,2013-02-06 01:12:00,
2013-02-05 20:33:00,-999.0,-99.9,-100.00,ESE,123,0.0,1.0,-999,-99.99,,,-99.99,,2013-02-06 01:33:00,
2013-02-05 21:02:00,25.0,-99.9,29.93,WSW,239,6.0,9.0,-999,-99.99,,,-99.99,,2013-02-06 02:02:00,
2013-02-05 21:12:00,25.0,-99.9,29.93,SW,227,4.0,7.0,-999,-99.99,,,-99.99,,2013-02-06 02:12:00,
2013-02-05 21:22:00,-999.0,-99.9,-100.00,SW,235,4.0,5.0,-999,-99.99,,,-99.99,,2013-02-06 02:22:00,
2013-02-05 21:32:00,25.0,-99.9,29.93,SSW,206,5.0,8.0,-999,-99.99,,,-99.99,,2013-02-06 02:32:00,
2013-02-05 21:43:00,25.0,-99.9,29.93,SSW,192,4.0,10.0,-999,-99.99,,,-99.99,,2013-02-06 02:43:00,
2013-02-05 21:53:00,-999.0,-99.9,-100.00,SSW,203,4.0,6.0,-999,-99.99,,,-99.99,,2013-02-06 02:53:00,
2013-02-05 22:03:00,25.0,-99.9,29.93,SSW,197,4.0,8.0,-999,-99.99,,,-99.99,,2013-02-06 03:03:00,
2013-02-05 22:12:00,25.0,-99.9,-100.00,SW,216,4.0,8.0,-999,-99.99,,,-99.99,,2013-02-06 03:12:00,
2013-02-05 22:22:00,25.0,-99.9,29.94,SSW,207,5.0,7.0,-999,-99.99,,,-99.99,,2013-02-06 03:22:00,
2013-02-05 22:33:00,25.0,-99.9,29.94,SSW,199,3.0,6.0,-999,-99.99,,,-99.99,,2013-02-06 03:33:00,
2013-02-05 22:43:00,26.0,-99.9,-100.00,SSW,202,5.0,8.0,-999,-99.99,,,-99.99,,2013-02-06 03:43:00,
2013-02-05 22:53:00,-999.0,-99.9,-100.00,SSW,196,4.0,6.0,-999,-99.99,,,-99.99,,2013-02-06 03:53:00,
2013-02-05 23:12:00,26.0,-99.9,29.94,SSW,213,7.0,11.0,-999,-99.99,,,-99.99,,2013-02-06 04:12:00,
2013-02-05 23:22:00,-999.0,-99.9,-100.00,SW,220,6.0,11.0,-999,-99.99,,,-99.99,,2013-02-06 04:22:00,
2013-02-05 23:42:00,-999.0,-99.9,-100.00,SW,229,8.0,14.0,-999,-99.99,,,-99.99,,2013-02-06 04:42:00,